Location: Bois de la Silve
(44.4667°N, 6.7833°E)
Time: 10:46:43
(UTC+00:00)

Meteor 1-28 Rocket - Pass Details

Date: 14 July 2020
Orbit: 505 x 522 km, 97.3° (Epoch: 05 August)

Event Time Altitude Azimuth Distance (km) Brightness Sun altitude
Exits shadow 02:31:15 - 170° (S) 1,763 5.5 -13.1°
Reaches altitude 10° 02:31:22 10° 170° (S) 1,716 5.5 -13.1°
Maximum altitude 02:35:04 81° 257° (WSW) 520 3.1 -12.6°
Drops below altitude 10° 02:38:49 10° 346° (NNW) 1,739 6.3 -12.2°
Sets 02:40:55 0° 347° (NNW) 2,632 7.3 -11.9°
